Starlink 1298

operational
NORAD ID: 45413 Int'l Des: 2020-019 Owner: SPXS Country: US Constellation: starlink
LEOCIRCULAR

关于 Starlink 1298

正在加载描述...

实时位置

正在加载3D地球...

即将过境

高度历史

Altitude vs Time

uPlot chart will show altitude changes over time

两行轨道根数

1 45413U 20019BF 26062.66668981 .00222360 29732-4 64297-3 0 9998
2 45413 53.0353 84.7536 0007488 357.4114 53.6705 15.92567922 5901
Epoch: Mar 3, 2026 • Age: 25 hours

当前状态

高度 301.4 km
速度 7.73 km/s
星下点 41.00°N, 40.16°E
发射日期 Mar 18, 2020
运行时间 5.9 years
类型 internet

技术详情

分类 Payload
质量 260.00 kg
干质量 248.00 kg
总质量 260.00 kg
长度 0.20 m
直径 2.80 m
跨度 9.00 m
形状 Box + pan
制造商 SPXS
平台类型 Starlink
阶段状态 In Orbit
所有者/国家 SPXS/US

大型星座

Loading constellations...